Location: Unspecified
(38.9820°N, 94.4650°W)
Time: 04:44:42
(UTC-05:00)

ISS - Visible Passes

Search period start: 19 July 2018 00:00
Search period end: 29 July 2018 00:00
Orbit: 402 x 408 km, 51.6° (Epoch: 19 July)

Date Brightness Start Highest point End Pass type
(mag) Time Alt. Az. Time Alt. Az. Time Alt. Az.
19 Jul -0.5 00:40:19 10° NW 00:42:05 14° NNW 00:43:52 10° NNE visible
19 Jul -0.9 03:54:52 10° NNW 03:57:18 19° NNE 03:59:44 10° ENE visible
19 Jul -3.9 05:30:48 10° NW 05:34:05 68° SW 05:37:21 10° SE visible
19 Jul -4.0 22:09:41 10° SW 22:12:56 71° SE 22:16:12 10° NE visible
19 Jul -0.9 23:47:20 10° WNW 23:49:43 18° NNW 23:52:07 10° NNE visible
20 Jul -0.4 03:03:07 10° NNW 03:04:57 14° NNE 03:06:46 10° NE visible
20 Jul -3.2 04:38:43 10° NW 04:41:59 60° NE 04:45:14 10° ESE visible
20 Jul -3.2 21:17:55 10° SSW 21:20:54 34° SE 21:23:54 10° ENE visible
20 Jul -1.6 22:54:34 10° W 22:57:25 27° NNW 23:00:17 10° NNE visible
21 Jul -0.1 00:34:16 10° NNW 00:34:47 10° N 00:35:18 10° N visible
21 Jul -0.2 02:11:29 10° N 02:12:31 11° NNE 02:13:32 10° NNE visible
21 Jul -2.0 03:46:45 10° NW 03:49:47 33° NNE 03:52:49 10° E visible
21 Jul -2.8 05:23:24 10° WNW 05:26:11 25° SW 05:28:58 10° S visible
21 Jul -2.6 22:02:02 10° WSW 22:05:11 45° NNW 22:08:21 10° NE visible
21 Jul -0.4 23:40:50 10° NW 23:42:19 12° NNW 23:43:48 10° NNE visible
22 Jul -1.2 02:54:52 10° NNW 02:57:30 21° NNE 03:00:07 10° ENE visible
22 Jul -3.8 04:30:57 10° WNW 04:34:10 51° SW 04:37:22 10° SE visible
22 Jul -3.8 21:09:45 10° SW 21:13:01 88° NNW 21:16:17 10° NE visible
22 Jul -0.7 22:47:44 10° WNW 22:49:54 16° NNW 22:52:04 10° NNE visible
23 Jul -0.4 02:03:04 10° NNW 02:03:23 11° NNW 02:03:23 11° NNW visible
23 Jul -1.2 21:54:50 10° W 21:57:31 23° NNW 22:00:14 10° NNE visible
24 Jul -0.3 01:11:20 10° N 01:12:01 11° N 01:12:01 11° N visible
24 Jul -2.1 21:02:10 10° WSW 21:05:13 36° NNW 21:08:18 10° NE visible
24 Jul -0.5 22:41:16 10° NW 22:42:27 11° NNW 22:43:37 10° N visible
25 Jul -0.7 21:48:02 10° NW 21:49:57 15° NNW 21:51:54 10° NNE visible
26 Jul -0.2 01:02:54 10° NNW 01:02:57 10° NNW 01:02:57 10° NNW visible
27 Jul -0.6 00:11:06 10° NNW 00:12:16 13° N 00:12:16 13° N visible
27 Jul -0.5 21:41:39 10° NNW 21:42:28 11° N 21:43:17 10° N visible
27 Jul -0.6 23:19:28 10° N 23:20:11 10° N 23:20:53 10° NNE visible
